EW3246 Weather Reports


time (UTC)temp
C
wind
direction
speed
KPH
gust
KPH
rain 1hr
cm
rain 24hr
cm
rain mn
cm
humidity
%
barometer
mb
20260906110052 22 241 1.6 6.4 0.00 0.00 0.00 97 1009.6
20260906105543 22 241 0.0 3.2 0.00 0.00 0.00 97 1009.3
20260906105033 22 241 0.0 1.6 0.00 0.00 0.00 97 1009.2
20260906104549 22 241 0.0 0.0 0.00 0.00 0.00 97 1009.4
20260906104030 22 241 0.0 0.0 0.00 0.00 0.00 97 1009.4
20260906103518 22 241 0.0 6.4 0.00 0.00 0.00 97 1009.2
20260906103031 22 241 0.0 6.4 0.00 0.00 0.00 97 1009.1
20260906102511 22 241 0.0 4.8 0.00 0.00 0.00 97 1009.1
20260906102101 22 241 0.0 8.0 0.00 0.00 0.00 97 1008.8
20260906101521 22 241 0.0 9.7 0.00 0.00 0.00 97 1008.8
20260906101057 22 241 3.2 8.0 0.00 0.00 0.00 97 1008.8
20260906100541 22 241 0.0 8.0 0.00 0.00 0.00 97 1008.7
20260906100058 22 241 0.0 8.0 0.00 0.00 0.00 97 1008.7
20260906095542 22 241 3.2 9.7 0.00 0.00 0.00 97 1008.6
20260906095029 22 241 4.8 9.7 0.00 0.00 0.00 98 1008.5
20260906094532 21 241 3.2 8.0 0.00 0.00 0.00 98 1008.5
20260906094114 21 241 4.8 8.0 0.00 0.00 0.00 98 1008.5
20260906093543 21 241 3.2 6.4 0.00 0.00 0.00 98 1008.5
20260906093113 21 241 3.2 8.0 0.00 0.00 0.00 98 1008.5
20260906092537 21 241 3.2 8.0 0.00 0.00 0.00 98 1008.5
20260906092026 21 241 1.6 6.4 0.00 0.00 0.00 98 1008.5
20260906091537 21 241 0.0 0.0 0.00 0.00 0.00 98 1008.4
20260906091030 20 241 0.0 0.0 0.00 0.00 0.00 98 1008.4
20260906090509 20 241 0.0 0.0 0.00 0.00 0.00 97 1008.4
20260906090124 20 241 0.0 0.0 0.00 0.00 0.00 97 1008.4
20260906085548 20 241 0.0 0.0 0.00 0.00 0.00 97 1008.4
20260906085039 20 241 0.0 0.0 0.00 0.00 0.00 97 1008.4
20260906084553 20 241 0.0 0.0 0.00 0.00 0.00 97 1008.2
20260906084034 20 241 0.0 0.0 0.00 0.00 0.00 97 1008.1
20260906083511 20 241 0.0 0.0 0.00 0.00 0.00 97 1008.0
20260906083040 20 241 0.0 0.0 0.00 0.00 0.00 97 1008.0
20260906082516 20 241 0.0 0.0 0.00 0.00 0.00 97 1008.1
20260906082057 20 241 0.0 0.0 0.00 0.00 0.00 97 1008.1
20260906081511 20 241 0.0 0.0 0.00 0.00 0.00 97 1008.1
20260906081059 20 241 0.0 0.0 0.00 0.00 0.00 97 1008.1
20260906080544 20 241 0.0 0.0 0.00 0.00 0.00 97 1008.1
20260906080100 21 241 0.0 0.0 0.00 0.00 0.00 97 1008.1
20260906075546 21 241 0.0 1.6 0.00 0.00 0.00 96 1008.1
20260906075032 21 241 0.0 3.2 0.00 0.00 0.00 96 1008.0
20260906074549 21 241 1.6 3.2 0.00 0.00 0.00 96 1008.0
20260906074031 21 241 0.0 0.0 0.00 0.00 0.00 96 1008.0
20260906073520 21 241 0.0 0.0 0.00 0.00 0.00 96 1008.0
20260906073004 21 241 0.0 0.0 0.00 0.00 0.00 96 1008.0
20260906072549 21 241 0.0 0.0 0.00 0.00 0.00 96 1008.0
20260906072032 21 241 0.0 0.0 0.00 0.00 0.00 97 1008.0
20260906071523 21 241 0.0 0.0 0.00 0.00 0.00 97 1008.0
20260906071002 21 241 0.0 0.0 0.00 0.00 0.00 97 1008.0
20260906070556 21 241 0.0 0.0 0.00 0.00 0.00 97 1008.2
20260906065518 21 241 0.0 0.0 0.00 0.00 0.00 97 1008.4
20260906065057 21 241 0.0 4.8 0.00 0.00 0.00 96 1008.5
20260906064505 21 241 1.6 4.8 0.00 0.00 0.00 97 1008.5
20260906064058 21 241 0.0 0.0 0.00 0.00 0.00 96 1008.4
20260906063544 21 241 0.0 0.0 0.00 0.00 0.00 96 1008.6
20260906063053 21 241 0.0 0.0 0.00 0.00 0.00 96 1008.6
20260906062535 21 241 0.0 0.0 0.00 0.00 0.00 96 1008.6
20260906062011 21 241 0.0 0.0 0.00 0.00 0.00 96 1008.5
20260906061531 21 241 0.0 0.0 0.00 0.00 0.00 96 1008.5
20260906061016 21 241 0.0 0.0 0.00 0.00 0.00 95 1008.6
20260906060558 21 241 0.0 1.6 0.00 0.00 0.00 95 1008.6
20260906060006 21 241 0.0 1.6 0.00 0.00 0.00 95 1008.7
20260906055550 21 241 0.0 0.0 0.00 0.00 0.00 95 1008.6
20260906055035 21 241 0.0 0.0 0.00 0.00 0.00 95 1008.4
20260906054555 21 241 0.0 0.0 0.00 0.00 0.00 95 1008.5
20260906054042 21 241 0.0 0.0 0.00 0.00 0.00 95 1008.5
20260906053513 21 241 0.0 0.0 0.00 0.00 0.00 95 1008.7
20260906053040 21 241 0.0 0.0 0.00 0.00 0.00 95 1008.7
20260906052527 21 241 0.0 0.0 0.00 0.00 0.00 95 1008.7
20260906052021 21 241 0.0 0.0 0.00 0.00 0.00 94 1008.8
20260906051532 21 241 0.0 0.0 0.00 0.00 0.00 95 1008.8
20260906051015 21 241 0.0 0.0 0.00 0.00 0.00 95 1008.8
20260906050554 21 241 0.0 0.0 0.00 0.00 0.00 94 1008.7
20260906050014 21 241 0.0 0.0 0.00 0.00 0.00 94 1008.6
20260906045557 21 241 0.0 0.0 0.00 0.00 0.00 94 1008.8
20260906045046 22 241 0.0 0.0 0.00 0.00 0.00 93 1008.7
20260906044501 22 241 0.0 0.0 0.00 0.00 0.00 94 1008.7
20260906044045 22 241 0.0 0.0 0.00 0.00 0.00 94 1008.7
20260906043535 22 241 0.0 3.2 0.00 0.00 0.00 94 1008.7
20260906043105 22 241 0.0 3.2 0.00 0.00 0.00 94 1008.8
20260906042540 22 241 0.0 0.0 0.00 0.00 0.00 93 1008.9
20260906042024 22 241 0.0 0.0 0.00 0.00 0.00 93 1009.0
20260906041539 22 241 0.0 0.0 0.00 0.00 0.00 93 1008.9
20260906041029 22 241 0.0 0.0 0.00 0.00 0.00 93 1009.0
20260906040506 22 241 0.0 0.0 0.00 0.00 0.00 92 1008.9
20260906040059 22 241 0.0 0.0 0.00 0.00 0.00 93 1008.8
20260906035532 22 241 0.0 0.0 0.00 0.00 0.00 92 1008.7
20260906035015 22 241 0.0 0.0 0.00 0.00 0.00 92 1008.8
20260906034536 22 241 0.0 0.0 0.00 0.00 0.00 91 1008.7
20260906034008 22 241 0.0 0.0 0.00 0.00 0.00 91 1008.7
20260906033555 23 241 0.0 0.0 0.00 0.00 0.00 92 1008.8
20260906033021 23 241 0.0 0.0 0.00 0.00 0.00 92 1008.9
20260906032549 23 241 0.0 0.0 0.00 0.00 0.00 92 1008.8
20260906032032 23 241 0.0 3.2 0.00 0.00 0.00 92 1008.9
20260906031546 23 241 0.0 3.2 0.00 0.00 0.00 93 1008.9
20260906031035 22 241 0.0 0.0 0.00 0.00 0.00 93 1008.8
20260906030526 22 241 0.0 3.2 0.00 0.00 0.00 93 1008.7
20260906030007 22 241 0.0 3.2 0.00 0.00 0.00 94 1008.7
20260906025551 22 241 1.6 3.2 0.00 0.00 0.00 94 1008.7
20260906025040 22 241 0.0 3.2 0.00 0.00 0.00 93 1008.6
20260906024531 23 241 1.6 3.2 0.00 0.00 0.00 93 1008.5
20260906024009 23 241 0.0 3.2 0.00 0.00 0.00 93 1008.6
20260906023601 23 241 0.0 0.0 0.00 0.00 0.00 93 1008.7
20260906023025 23 241 0.0 0.0 0.00 0.00 0.00 93 1008.6
20260906022558 23 241 0.0 0.0 0.00 0.00 0.00 93 1008.6
20260906022044 23 241 0.0 3.2 0.00 0.00 0.00 92 1008.6
20260906021612 23 241 0.0 3.2 0.00 0.00 0.00 92 1008.5
20260906021042 23 241 0.0 0.0 0.00 0.00 0.00 92 1008.4
20260906020524 23 241 0.0 0.0 0.00 0.00 0.00 91 1008.4
20260906020041 23 241 0.0 0.0 0.00 0.00 0.00 91 1008.3
20260906015524 23 241 0.0 0.0 0.00 0.00 0.00 91 1008.2
20260906015003 23 241 0.0 0.0 0.00 0.00 0.00 91 1008.2
20260906014531 23 241 0.0 0.0 0.00 0.00 0.00 90 1008.2
20260906014003 23 241 0.0 0.0 0.00 0.00 0.00 90 1008.2
20260906013553 24 241 0.0 3.2 0.00 0.00 0.00 89 1008.1
20260906013014 24 241 0.0 4.8 0.00 0.00 0.00 89 1008.2
20260906012552 24 241 0.0 3.2 0.00 0.00 0.00 89 1008.0
20260906012041 24 241 0.0 3.2 0.00 0.00 0.00 88 1008.1
20260906011551 25 241 0.0 3.2 0.00 0.00 0.00 87 1008.0
20260906011034 25 241 0.0 3.2 0.00 0.00 0.00 85 1008.0
20260906010519 25 241 0.0 0.0 0.00 0.00 0.00 85 1007.9
20260906010003 25 241 0.0 0.0 0.00 0.00 0.00 83 1007.9
20260906005554 25 241 0.0 0.0 0.00 0.00 0.00 83 1007.8
20260906005039 26 241 0.0 0.0 0.00 0.00 0.00 83 1007.8
20260906004526 26 241 0.0 4.8 0.00 0.00 0.00 82 1007.7
20260906004105 26 241 0.0 4.8 0.00 0.00 0.00 81 1007.6
20260906003551 26 241 0.0 1.6 0.00 0.00 0.00 81 1007.6
20260906003108 26 241 0.0 0.0 0.00 0.00 0.00 80 1007.5
20260906002543 26 241 0.0 0.0 0.00 0.00 0.00 79 1007.5
20260906002021 26 241 0.0 0.0 0.00 0.00 0.00 79 1007.3
20260906001538 27 241 0.0 3.2 0.00 0.00 0.00 78 1007.3
20260906001026 27 241 0.0 3.2 0.00 0.00 0.00 77 1007.2
20260906000507 27 241 0.0 1.6 0.00 0.00 0.00 76 1007.2
20260906000030 27 241 0.0 0.0 0.00 0.00 0.00 76 1007.0
20260905235516 27 241 0.0 0.0 0.00 0.00 0.00 75 1007.1
20260905235055 27 241 0.0 0.0 0.00 0.00 0.00 75 1007.1
20260905234556 28 241 0.0 1.6 0.00 0.00 0.00 74 1007.0
20260905234036 28 241 0.0 1.6 0.00 0.00 0.00 73 1007.1
20260905233513 28 241 0.0 3.2 0.00 0.00 0.00 72 1007.1
20260905233001 28 241 0.0 4.8 0.00 0.00 0.00 71 1007.0
20260905232551 29 241 0.0 4.8 0.00 0.00 0.00 71 1006.9
20260905232037 29 241 0.0 3.2 0.00 0.00 0.00 71 1006.9
20260905231517 29 241 0.0 6.4 0.00 0.00 0.00 71 1006.9
20260905231102 29 241 3.2 6.4 0.00 0.00 0.00 71 1007.0
20260905230549 29 241 3.2 6.4 0.00 0.00 0.00 70 1006.9
20260905230043 29 241 1.6 6.4 0.00 0.00 0.00 70 1006.9
20260905225535 29 241 3.2 6.4 0.00 0.00 0.00 70 1007.0
20260905225009 29 241 3.2 9.7 0.00 0.00 0.00 69 1006.9
20260905224540 30 241 3.2 9.7 0.00 0.00 0.00 69 1006.9
20260905224005 30 241 4.8 9.7 0.00 0.00 0.00 68 1007.1
20260905223559 30 241 1.6 8.0 0.00 0.00 0.00 68 1007.0
20260905223020 30 241 1.6 6.4 0.00 0.00 0.00 69 1007.1
20260905222552 30 241 1.6 8.0 0.00 0.00 0.00 69 1007.1
20260905222034 30 241 3.2 9.7 0.00 0.00 0.00 67 1007.1
20260905221548 30 241 4.8 12.9 0.00 0.00 0.00 67 1007.1
20260905221027 30 241 4.8 12.9 0.00 0.00 0.00 67 1007.0
20260905220522 30 241 4.8 14.5 0.00 0.00 0.00 67 1007.0
20260905220033 30 241 8.0 14.5 0.00 0.00 0.00 66 1007.0
20260905215521 30 243 6.4 11.3 0.00 0.00 0.00 67 1007.1
20260905215058 30 243 4.8 11.3 0.00 0.00 0.00 66 1007.1
20260905214511 30 243 6.4 11.3 0.00 0.00 0.00 66 1007.2
20260905214101 30 242 4.8 9.7 0.00 0.00 0.00 66 1007.1
20260905213548 30 242 3.2 9.7 0.00 0.00 0.00 68 1007.2
20260905213111 29 242 4.8 16.1 0.00 0.00 0.00 66 1007.3
20260905212547 29 242 8.0 16.1 0.00 0.00 0.00 65 1007.3
20260905212034 29 243 6.4 11.3 0.00 0.00 0.00 67 1007.2
20260905211544 28 243 6.4 14.5 0.00 0.00 0.00 68 1007.1
20260905211033 28 243 6.4 14.5 0.00 0.00 0.00 66 1007.0
20260905210515 29 244 6.4 16.1 0.00 0.00 0.00 67 1007.1
20260905210005 29 244 8.0 14.5 0.00 0.00 0.00 67 1007.1
20260905205548 29 244 8.0 12.9 0.00 0.00 0.00 66 1007.0
20260905205033 29 244 4.8 11.3 0.00 0.00 0.00 68 1007.0
20260905204527 29 244 4.8 11.3 0.00 0.00 0.00 66 1007.1
20260905204005 30 244 4.8 11.3 0.00 0.00 0.00 65 1007.0
20260905203602 30 244 1.6 11.3 0.00 0.00 0.00 65 1007.0
20260905203005 30 244 4.8 14.5 0.00 0.00 0.00 65 1007.2
20260905202555 30 244 6.4 14.5 0.00 0.00 0.00 66 1007.0
20260905202041 29 245 8.0 16.1 0.00 0.00 0.00 65 1007.1
20260905201603 29 245 9.7 19.3 0.00 0.00 0.00 65 1007.0
20260905201046 29 245 11.3 17.7 0.00 0.00 0.00 64 1007.0
20260905200533 29 247 6.4 14.5 0.00 0.00 0.00 67 1007.0
20260905200053 29 247 6.4 14.5 0.00 0.00 0.00 68 1007.1
20260905195528 29 247 3.2 14.5 0.00 0.00 0.00 70 1007.0
20260905195020 29 247 3.2 12.9 0.00 0.00 0.00 68 1007.0
20260905194533 29 251 4.8 11.3 0.00 0.00 0.00 68 1007.1
20260905194018 28 251 6.4 12.9 0.00 0.00 0.00 70 1006.9
20260905193552 28 251 6.4 12.9 0.00 0.00 0.00 73 1007.0
20260905193002 28 251 3.2 11.3 0.00 0.00 0.00 72 1007.1
20260905192554 28 251 3.2 14.5 0.00 0.00 0.00 72 1006.6
20260905192040 27 251 4.8 14.5 0.00 0.00 0.00 74 1006.7
20260905191533 27 251 6.4 19.3 0.00 0.00 0.00 74 1006.8
20260905191028 27 253 6.4 19.3 0.00 0.00 0.00 76 1007.0
20260905190603 27 263 9.7 17.7 0.00 0.00 0.00 75 1006.8
20260905190014 27 268 0.0 0.0 0.00 0.00 0.00 72 1006.4
20260905185500 27 268 0.0 0.0 0.00 0.00 0.00 73 1006.0
20260905185050 27 268 0.0 0.0 0.00 0.00 0.00 76 1005.9
20260905184544 27 268 0.0 0.0 0.00 0.00 0.00 76 1006.3
20260905184017 27 268 0.0 0.0 0.00 0.00 0.00 76 1006.5
20260905183503 27 268 0.0 3.2 0.00 0.00 0.00 75 1006.5
20260905183052 27 268 0.0 6.4 0.00 0.00 0.00 74 1006.8
20260905182543 27 268 0.0 11.3 0.00 0.00 0.00 72 1007.3
20260905182024 28 268 1.6 14.5 0.00 0.00 0.00 70 1007.6
20260905181544 28 268 3.2 14.5 0.00 0.00 0.00 68 1007.5
20260905181020 28 268 0.0 14.5 0.00 0.00 0.00 68 1007.9
20260905180501 28 268 3.2 27.4 0.00 0.00 0.00 67 1008.1
20260905180021 29 268 12.9 27.4 0.00 0.00 0.00 65 1008.0
20260905175503 29 266 4.8 29.0 0.00 0.00 0.00 65 1008.0
20260905175049 30 264 12.9 25.7 0.00 0.00 0.00 64 1008.0
20260905174508 30 275 14.5 24.1 0.00 0.00 0.00 65 1008.2
20260905174055 31 284 6.4 16.1 0.00 0.00 0.00 66 1008.2
20260905173545 31 292 3.2 25.7 0.00 0.00 0.00 65 1008.4
20260905173111 32 292 11.3 25.7 0.00 0.00 0.00 64 1008.2
20260905172547 32 255 8.0 22.5 0.00 0.00 0.00 64 1008.1
20260905172027 32 247 3.2 24.1 0.00 0.00 0.00 64 1008.3
20260905171539 33 247 9.7 24.1 0.00 0.00 0.00 61 1008.4
20260905171024 33 245 4.8 24.1 0.00 0.00 0.00 62 1008.4
20260905170505 33 244 6.4 24.1 0.00 0.00 0.00 59 1008.6
20260905170031 33 241 9.7 24.1 0.00 0.00 0.00 59 1008.6
20260905165508 33 211 6.4 16.1 0.00 0.00 0.00 60 1008.6
20260905165101 33 209 6.4 16.1 0.00 0.00 0.00 60 1008.6
20260905164517 33 205 6.4 14.5 0.00 0.00 0.00 61 1008.7
20260905164056 33 205 0.0 16.1 0.00 0.00 0.00 64 1008.8
20260905163540 33 204 9.7 16.1 0.00 0.00 0.00 64 1008.7
20260905163103 33 209 4.8 11.3 0.00 0.00 0.00 64 1008.6
20260905162545 33 209 1.6 8.0 0.00 0.00 0.00 67 1008.7
20260905162029 32 209 1.6 12.9 0.00 0.00 0.00 69 1008.7
20260905161540 32 209 6.4 12.9 0.00 0.00 0.00 69 1008.8
20260905161025 32 209 4.8 12.9 0.00 0.00 0.00 69 1009.0
20260905160506 32 209 3.2 11.3 0.00 0.00 0.00 71 1008.9
20260905160044 32 209 4.8 11.3 0.00 0.00 0.00 70 1009.0
20260905155508 32 209 4.8 8.0 0.00 0.00 0.00 71 1009.0
20260905155056 31 209 1.6 9.7 0.00 0.00 0.00 74 1009.0
20260905154550 31 209 6.4 9.7 0.00 0.00 0.00 73 1009.2
20260905154034 31 209 1.6 11.3 0.00 0.00 0.00 71 1009.2
20260905153511 31 209 4.8 9.7 0.00 0.00 0.00 71 1009.3
20260905153113 31 209 4.8 9.7 0.00 0.00 0.00 72 1009.2
20260905152552 31 209 3.2 9.7 0.00 0.00 0.00 70 1009.3
20260905152035 31 209 3.2 9.7 0.00 0.00 0.00 72 1009.3
20260905151543 31 209 4.8 11.3 0.00 0.00 0.00 71 1009.4
20260905151031 31 209 6.4 11.3 0.00 0.00 0.00 71 1009.3
20260905150507 31 209 4.8 9.7 0.00 0.00 0.00 71 1009.3
20260905150033 31 209 4.8 9.7 0.00 0.00 0.00 74 1009.3
20260905145508 30 209 4.8 11.3 0.00 0.00 0.00 77 1009.3
20260905145057 30 209 4.8 11.3 0.00 0.00 0.00 76 1009.4
20260905144551 30 209 6.4 9.7 0.00 0.00 0.00 76 1009.5
20260905144032 30 209 4.8 9.7 0.00 0.00 0.00 77 1009.4
20260905143511 29 209 1.6 11.3 0.00 0.00 0.00 77 1009.4
20260905143100 29 209 3.2 11.3 0.00 0.00 0.00 77 1009.5
20260905142550 29 209 1.6 9.7 0.00 0.00 0.00 77 1009.5
20260905142035 29 209 4.8 8.0 0.00 0.00 0.00 77 1009.4
20260905141523 28 209 4.8 9.7 0.00 0.00 0.00 78 1009.4
20260905141058 28 209 4.8 9.7 0.00 0.00 0.00 78 1009.3
20260905140550 28 209 4.8 8.0 0.00 0.00 0.00 79 1009.3
20260905140002 28 209 1.6 9.7 0.00 0.00 0.00 80 1009.3
20260905135550 28 209 4.8 14.5 0.00 0.00 0.00 81 1009.2
20260905135035 27 209 6.4 14.5 0.00 0.00 0.00 82 1009.2
20260905134604 27 209 4.8 8.0 0.00 0.00 0.00 83 1009.2
20260905134037 27 209 3.2 6.4 0.00 0.00 0.00 83 1009.2
20260905133523 27 209 0.0 8.0 0.00 0.00 0.00 85 1009.2
20260905133045 26 209 0.0 6.4 0.00 0.00 0.00 86 1009.2
20260905132524 26 209 0.0 6.4 0.00 0.00 0.00 87 1009.3
20260905132103 26 209 1.6 6.4 0.00 0.00 0.00 87 1009.2
20260905131555 26 209 1.6 9.7 0.00 0.00 0.00 88 1009.2
20260905131036 25 209 1.6 9.7 0.00 0.00 0.00 89 1009.2
20260905130507 25 209 0.0 4.8 0.00 0.00 0.00 90 1009.2
20260905130028 24 209 1.6 4.8 0.00 0.00 0.00 91 1009.2
20260905125508 24 209 3.2 4.8 0.00 0.00 0.00 92 1009.2
20260905125057 23 209 1.6 4.8 0.00 0.00 0.00 93 1009.2
20260905124505 23 209 0.0 3.2 0.00 0.00 0.00 94 1009.2
20260905124052 23 209 0.0 3.2 0.00 0.00 0.00 94 1009.2
20260905123538 23 209 0.0 1.6 0.00 0.00 0.00 94 1009.1
20260905123032 23 209 0.0 4.8 0.00 0.00 0.00 94 1009.2
20260905122511 23 209 0.0 6.4 0.00 0.00 0.00 94 1009.2
20260905122053 22 209 0.0 6.4 0.00 0.00 0.00 95 1009.2
20260905121542 22 209 1.6 4.8 0.00 0.00 0.00 96 1009.2
20260905121032 22 209 0.0 8.0 0.00 0.00 0.00 96 1009.3
20260905120506 22 209 3.2 8.0 0.00 0.00 0.00 97 1009.3
20260905120101 22 209 1.6 6.4 0.00 0.00 0.00 97 1009.2
20260905115552 21 209 1.6 4.8 0.00 0.00 0.00 97 1009.3
20260905115034 21 209 1.6 4.8 0.00 0.00 0.00 97 1009.3
20260905114620 21 209 1.6 4.8 0.00 0.00 0.00 97 1009.1
20260905114033 21 209 1.6 4.8 0.00 0.00 0.00 97 1009.1
20260905113509 21 209 0.0 1.6 0.00 0.00 0.00 97 1009.1
20260905113033 21 209 0.0 0.0 0.00 0.00 0.00 97 1009.1
20260905112504 21 209 0.0 0.0 0.00 0.00 0.00 97 1009.1
20260905112059 21 209 0.0 0.0 0.00 0.00 0.00 97 1008.9
20260905111517 21 209 0.0 0.0 0.00 0.00 0.00 97 1009.0
20260905111000 21 209 0.0 3.2 0.00 0.00 0.00 97 1009.0
20260905110552 21 209 0.0 6.4 0.00 0.00 0.00 97 1009.0